Debrecen, Hungary

5:50 AM CEST on July 28, 2016 (GMT +0200)
Debrecen

Weather History for LHDC - August, 2013

Change the Weather History Date:

Saturday, August 10, 2013

  Actual Average Record
Temperature  
Mean Temperature 80 °F -  
Max Temperature 89 °F 77 °F - ()
Min Temperature 70 °F 55 °F - ()
Cooling Degree Days 14    
Growing Degree Days 30 (Base 50)    
Moisture  
Dew Point 63 °F    
Average Humidity 53    
Maximum Humidity 69    
Minimum Humidity 33    
Precipitation  
Precipitation 0.12 in 0.07 in - ()
Sea Level Pressure  
Sea Level Pressure 29.86 in    
Wind  
Wind Speed 8 mph ()    
Max Wind Speed 21 mph    
Max Gust Speed 32 mph    
Visibility 7.8 miles    
Events Rain , Thunderstorm    
T = Trace of Precipitation, MM = Missing Value Source: Averaged Metar Reports

Daily Weather History Graph

Daily Weather History Graph

Search for Another Location

Airport or City:

Trip Planner

Search our weather history database for the weather conditions in past years. The results will help you decide how hot, cold, wet, or windy it might be!

Date:

Astronomy

Aug. 10, 2013 Rise Set
Actual Time 5:22 AM CEST 7:53 PM CEST
Civil Twilight 4:48 AM CEST 8:28 PM CEST
Nautical Twilight 4:04 AM CEST 9:11 PM CEST
Astronomical Twilight 3:14 AM CEST 10:01 PM CEST
Moon 9:10 AM CEST (8/10) 9:04 PM CEST (8/10)
Length of Visible Light 15h 39m
Length of Day
14h 30m
Waxing Crescent, 12% of the Moon is Illuminated
Aug 10
Waxing Crescent
Aug 14
First Quarter
Aug 21
Full
Aug 28
Last Quarter
Sep 5
New

Hourly Weather History & Observations

Time (CEST) Temp. Heat Index Dew Point Humidity Pressure Visibility Wind Dir Wind Speed Gust Speed Precip Events Conditions
2:00 AM 74 °F - 60 °F 52% 29.81 in - NE 4.5 mph - -  
4:45 AM 75.2 °F - 62.6 °F 65% 29.86 in 6.2 mi NW 11.5 mph - N/A   Scattered Clouds
5:15 AM 75.2 °F - 64.4 °F 69% 29.86 in - NNW 12.7 mph - N/A   Clear
5:45 AM 75.2 °F - 64.4 °F 69% 29.86 in - North 6.9 mph - N/A   Clear
6:15 AM 75.2 °F - 64.4 °F 69% 29.86 in 6.2 mi NNW 3.5 mph - N/A   Scattered Clouds
6:45 AM 77.0 °F - 62.6 °F 61% 29.86 in 6.2 mi North 8.1 mph - N/A   Scattered Clouds
7:02 AM - - - N/A% - 6.2 mi NNW 9.2 mph - N/A   Mostly Cloudy
7:15 AM 77.0 °F - 64.4 °F 65% 29.86 in 6.2 mi NNE 11.5 mph - N/A   Scattered Clouds
7:45 AM 78.8 °F - 64.4 °F 61% 29.86 in 6.2 mi ENE 8.1 mph - N/A   Mostly Cloudy
7:47 AM 77.0 °F - 64.4 °F 65% 29.86 in 6.2 mi ENE 11.5 mph - N/A   Mostly Cloudy
8:00 AM 78 °F - 64 °F 52% 29.84 in 12 mi ENE 8.9 mph - -   Partly Cloudy
8:15 AM 77.0 °F - 64.4 °F 65% 29.86 in 6.2 mi NE 12.7 mph - N/A   Mostly Cloudy
8:45 AM 78.8 °F - 64.4 °F 61% 29.86 in - NE 12.7 mph - N/A   Clear
9:15 AM 78.8 °F - 62.6 °F 57% 29.89 in - NE 13.8 mph - N/A   Clear
9:45 AM 78.8 °F - 62.6 °F 57% 29.89 in - North 6.9 mph - N/A   Clear
10:00 AM - - - N/A% - - North 9.2 mph - N/A Rain , Thunderstorm Rain Showers
10:15 AM 80.6 °F 82.3 °F 64.4 °F 58% 29.86 in - NNE 4.6 mph - N/A   Clear
10:45 AM 82.4 °F 83.9 °F 64.4 °F 54% 29.86 in - West 2.3 mph - N/A   Clear
11:15 AM 84.2 °F 85.0 °F 62.6 °F 48% 29.86 in - SSE 1.2 mph - N/A   Clear
11:45 AM 84.2 °F 85.0 °F 62.6 °F 48% 29.86 in - West 4.6 mph - N/A   Clear
12:15 PM 86.0 °F 87.3 °F 64.4 °F 48% 29.86 in - West 5.8 mph - N/A   Clear
12:45 PM 87.8 °F 89.4 °F 64.4 °F 46% 29.86 in - WNW 5.8 mph - N/A   Clear
1:00 PM - - - N/A% - - NNW 6.9 mph - N/A Rain , Thunderstorm Rain Showers
1:15 PM 87.8 °F 88.5 °F 62.6 °F 43% 29.86 in - WNW 5.8 mph - N/A   Clear
1:45 PM 87.8 °F 88.5 °F 62.6 °F 43% 29.86 in - West 9.2 mph - N/A   Clear
2:00 PM 88 °F - 63 °F 33% 29.84 in 16 mi West 8.9 mph - -   Partly Cloudy
2:15 PM 87.8 °F 88.5 °F 62.6 °F 43% 29.86 in - West 9.2 mph - N/A   Clear
2:45 PM 87.8 °F 87.6 °F 60.8 °F 40% 29.86 in - West 9.2 mph - N/A   Clear
3:15 PM 89.6 °F 90.1 °F 62.6 °F 40% 29.86 in - WNW 9.2 mph - N/A   Clear
3:45 PM 87.8 °F 88.5 °F 62.6 °F 43% 29.83 in - NW 11.5 mph - N/A   Clear
4:15 PM 89.6 °F 90.1 °F 62.6 °F 40% 29.83 in - NW 9.2 mph - N/A   Clear
5:00 PM - - - N/A% - - North - - N/A   Unknown
5:58 PM 84.2 °F 85.0 °F 62.6 °F 48% 29.83 in - North 13.8 mph 32.2 mph N/A   Unknown
6:23 PM 80.6 °F 81.5 °F 60.8 °F 51% 29.86 in - North 20.7 mph - N/A   Unknown
8:00 PM 74 °F - 63 °F 61% 29.87 in - NNW 6.7 mph - -